sat.trackr.live / text

‹ back to catalog

STARLINK-4445

NORAD 53474 · 2022-099K

PAYLOAD ACTIVE UNKNOWN

§ Identity

Operator
Country
US
Launch date
2022-08-12
Launch site
AFWTR
Launch vehicle
Mass (kg)
RCS (m²)

Purposes: comms

External: N2YO · Heavens-Above · Gunter

§ Orbital elements

Epoch: 2026-09-20T04:00:03.000096Z

Period
94.76 min
Inclination
97.2831°
Eccentricity
0.0001219
Mean motion
15.19652663 rev/d
Perigee alt
506.1 km
Apogee alt
507.7 km
Semi-major
6,885.0 km
B*
3.8134e-3
RAAN
17.0935°
Arg perigee
36.4890°
Mean anomaly
80.4670°
Rev number
582

§ Raw data

STARLINK-44451 53474U 22099K   26263.16670139  .00082093  00000+0  38134-2 0  99992 53474  97.2831  17.0935 0001219  36.4890  80.4670 15.19652663  5827

JSON: /api/v1/satellites/53474 · /tle

For live sub-satellite position, see the globe view (requires WebGL).

§ Visibility from observer

Set your observer location to see the next 7 days of passes ≥ 10°. The values pass through the URL so the page stays shareable.

No JS? Fill the form by hand. The geolocation button needs JavaScript.